Valentine, NE

1:26 AM CST on November 24, 2017 (GMT -0600)
Miller Field

Weather History for KVTN - May, 2013

Change the Weather History Date:

Thursday, May 30, 2013

  Actual Average Record
Temperature  
Mean Temperature 64 °F 62 °F  
Max Temperature 74 °F 75 °F 98 °F (1934)
Min Temperature 54 °F 49 °F 32 °F (1947)
Degree Days  
Heating Degree Days 1 5  
Month to date heating degree days 238 257  
Since 1 July heating degree days 6880 6940  
Cooling Degree Days 0 2  
Month to date cooling degree days 39 29  
Year to date cooling degree days 39 33  
Growing Degree Days 14 (Base 50)    
Moisture  
Dew Point 49 °F    
Average Humidity 67    
Maximum Humidity 93    
Minimum Humidity 41    
Precipitation  
Precipitation 0.00 in 0.12 in 1.39 in (1938)
Month to date precipitation 4.71 3.00  
Year to date precipitation 9.37 7.03  
Snow  
Snow 0.00 in 0.00 in 0.00 in ()
Month to date snowfall 2.0 0.1  
Since 1 July snowfall 54.0 33.3  
Snow Depth 0.00 in    
Sea Level Pressure  
Sea Level Pressure 29.44 in    
Wind  
Wind Speed 21 mph (WSW)    
Max Wind Speed 39 mph    
Max Gust Speed 49 mph    
Visibility 10 miles    
Events      
T = Trace of Precipitation, MM = Missing Value Source: NWS Daily Summary

Daily Weather History Graph

Daily Weather History Graph

Search for Another Location

Airport or City:

Trip Planner

Search our weather history database for the weather conditions in past years. The results will help you decide how hot, cold, wet, or windy it might be!

Date:

Astronomy

May. 30, 2013 Rise Set
Actual Time 6:07 AM CDT 9:12 PM CDT
Civil Twilight 5:33 AM CDT 9:47 PM CDT
Nautical Twilight 4:49 AM CDT 10:31 PM CDT
Astronomical Twilight 3:57 AM CDT 11:23 PM CDT
Moon 1:09 AM CDT (5/30) 12:23 PM CDT (5/30)
Length of Visible Light 16h 14m
Length of Day
15h 05m
Waning Gibbous, 62% of the Moon is Illuminated
May 30
Waning Gibbous
May 31
Last Quarter
Jun 8
New
Jun 16
First Quarter
Jun 23
Full

Hourly Weather History & Observations

Time (CDT) Temp. Dew Point Humidity Pressure Visibility Wind Dir Wind Speed Gust Speed Precip Events Conditions
12:52 AM 57.9 °F 55.0 °F 90% 29.46 in 10.0 mi SW 9.2 mph - N/A   Clear
1:52 AM 57.0 °F 55.0 °F 93% 29.44 in 10.0 mi SSW 8.1 mph - N/A   Clear
2:52 AM 57.0 °F 54.0 °F 89% 29.42 in 10.0 mi SW 6.9 mph - N/A   Scattered Clouds
3:52 AM 57.0 °F 54.0 °F 89% 29.41 in 10.0 mi WSW 9.2 mph - N/A   Mostly Cloudy
4:52 AM 55.0 °F 53.1 °F 93% 29.41 in 10.0 mi WSW 9.2 mph - N/A   Clear
5:52 AM 55.0 °F 52.0 °F 89% 29.41 in 10.0 mi SW 8.1 mph - N/A   Clear
6:52 AM 55.0 °F 51.1 °F 86% 29.42 in 10.0 mi SW 12.7 mph - N/A   Clear
7:52 AM 57.9 °F 51.1 °F 78% 29.43 in 10.0 mi WSW 16.1 mph - N/A   Clear
8:52 AM 61.0 °F 52.0 °F 72% 29.42 in 10.0 mi WSW 20.7 mph 26.5 mph N/A   Clear
9:52 AM 64.0 °F 52.0 °F 65% 29.42 in 10.0 mi West 20.7 mph 25.3 mph N/A   Clear
10:52 AM 64.9 °F 52.0 °F 63% 29.42 in 10.0 mi West 16.1 mph 25.3 mph N/A   Overcast
11:52 AM 66.9 °F 51.1 °F 57% 29.42 in 10.0 mi West 18.4 mph 28.8 mph N/A   Scattered Clouds
12:52 PM 70.0 °F 50.0 °F 49% 29.42 in 10.0 mi West 19.6 mph - N/A   Scattered Clouds
1:52 PM 71.1 °F 46.9 °F 42% 29.42 in 10.0 mi West 23.0 mph 34.5 mph N/A   Scattered Clouds
2:52 PM 71.1 °F 46.9 °F 42% 29.42 in 10.0 mi West 26.5 mph 36.8 mph N/A   Mostly Cloudy
3:52 PM 72.0 °F 46.9 °F 41% 29.42 in 10.0 mi West 19.6 mph 36.8 mph N/A   Mostly Cloudy
4:52 PM 72.0 °F 46.9 °F 41% 29.42 in 10.0 mi West 26.5 mph 33.4 mph N/A   Scattered Clouds
5:52 PM 69.1 °F 46.0 °F 44% 29.44 in 10.0 mi West 32.2 mph 39.1 mph N/A   Clear
6:52 PM 63.0 °F 44.1 °F 50% 29.47 in 10.0 mi West 28.8 mph 43.7 mph N/A   Clear
7:52 PM 59.0 °F 43.0 °F 55% 29.46 in 10.0 mi WSW 28.8 mph 42.6 mph N/A   Clear
8:52 PM 57.9 °F 43.0 °F 58% 29.46 in 10.0 mi West 31.1 mph 43.7 mph N/A   Clear
9:52 PM 55.9 °F 43.0 °F 62% 29.47 in 10.0 mi West 29.9 mph 35.7 mph N/A   Clear
10:52 PM 55.9 °F 43.0 °F 62% 29.49 in 10.0 mi West 29.9 mph 39.1 mph N/A   Overcast
11:52 PM 55.0 °F 44.1 °F 67% 29.51 in 10.0 mi West 24.2 mph 43.7 mph N/A   Overcast